This is the latest recevied weather packets stored in our database for station/object VA3XLT-1. If no packets are shown the sender has not sent any weather packets the latest 10 day(s).
| Time | Temp. | Humidity | Pressure | Rain* | Wind** | Luminosity | Snow |
|---|---|---|---|---|---|---|---|
| 1777943559 | 16.67° C | 79% | 1003 hPa | 0 mm | - | - | - |
| 1777943259 | 16.11° C | 80% | 1002.4 hPa | 0 mm | - | - | - |
| 1777942959 | 16.67° C | 79% | 1002.2 hPa | 0 mm | - | - | - |
| 1777942659 | 16.67° C | 79% | 1002 hPa | 0 mm | - | - | - |
| 1777942359 | 17.22° C | 76% | 1001.7 hPa | 0 mm | - | - | - |
| 1777942059 | 17.22° C | 79% | 1001.7 hPa | 0 mm | - | - | - |
| 1777941759 | 17.22° C | 79% | 1001.7 hPa | 0 mm | - | - | - |
| 1777941459 | 17.78° C | 75% | 1001.4 hPa | 0 mm | - | - | - |
| 1777941159 | 17.78° C | 74% | 1000.5 hPa | 0 mm | - | - | - |
| 1777940859 | 18.33° C | 74% | 1000.4 hPa | 0 mm | - | - | - |
| 1777940559 | 18.33° C | 74% | 1000.4 hPa | 0 mm | - | - | - |
| 1777940259 | 18.89° C | 72% | 1000.2 hPa | 0 mm | - | - | - |
| 1777939959 | 18.89° C | 70% | 1000.2 hPa | 0 mm | - | - | - |
| 1777939659 | 19.44° C | 68% | 1000.3 hPa | 0 mm | - | - | - |
| 1777939359 | 19.44° C | 67% | 1000.4 hPa | 0 mm | - | - | - |
| 1777939059 | 19.44° C | 65% | 1000.4 hPa | 0 mm | - | - | - |
| 1777938759 | 19.44° C | 64% | 1000.4 hPa | 0 mm | - | - | - |
| 1777938459 | 20° C | 64% | 1000.4 hPa | 0 mm | - | - | - |
| 1777938159 | 20° C | 63% | 1000.4 hPa | 0 mm | - | - | - |
| 1777937859 | 20° C | 63% | 1000.4 hPa | 0 mm | - | - | - |
| 1777937559 | 20° C | 62% | 1000.5 hPa | 0 mm | - | - | - |
| 1777937259 | 20° C | 61% | 1000.4 hPa | 0 mm | - | - | - |
| 1777936959 | 20.56° C | 59% | 1000.3 hPa | 0 mm | - | - | - |
| 1777936659 | 21.11° C | 58% | 1000.3 hPa | 0 mm | - | - | - |
| 1777936359 | 21.11° C | 57% | 1000.4 hPa | 0 mm | - | - | - |
* Rain latest hour (hover to see other rain measurements)
** Current wind speed in m/s (hover to see current wind gust speed)